GFSGBSN_sfc_temp_159.txt.gz
Temp
64 64 64 63 63 62 63 63 63 62 62 62 61 61 61 61 62 62 62 62 61 61 61 62 63 64 72 84 91 92 81 84 96 98 97 96 93 94 89 88 88 84 83 84 84 80 76
63 63 63 63 63 63 63 63 63 62 62 62 61 61 61 61 61 62 61 61 61 61 61 61 63 63 79 83 101 100 100 97 100 99 98 98 95 97 92 89 83 88 85 83 84 80 76
63 63 63 63 63 62 62 62 63 62 62 62 61 61 61 61 61 61 61 60 60 60 61 62 64 74 88 89 102 104 102 100 102 101 97 101 99 96 95 88 92 88 80 83 83 81 71
63 63 63 62 62 62 62 62 62 62 62 61 61 61 60 61 61 60 59 58 59 61 61 62 64 81 88 101 105 99 102 100 102 103 101 102 101 97 94 94 89 79 80 61 80 81 77
63 63 62 62 62 61 61 61 61 61 61 61 61 60 60 60 60 59 58 58 62 62 63 65 75 86 88 87 95 101 102 96 99 100 99 99 98 94 93 86 81 82 64 70 74 84 79
63 63 63 63 62 61 61 61 61 61 61 61 61 60 59 59 59 58 57 59 63 64 70 82 89 86 93 91 98 99 103 101 95 95 92 92 93 89 89 87 60 54 72 78 68 79 80
63 63 63 63 62 61 61 61 61 61 61 62 61 60 59 59 58 57 64 82 82 82 89 90 92 91 94 100 101 97 100 98 97 92 84 90 84 81 87 88 83 81 68 77 81 83 79
63 63 62 62 61 61 61 61 61 60 60 61 60 60 59 58 57 56 72 90 92 94 85 97 96 95 98 100 89 95 101 90 88 82 88 85 79 89 92 89 85 81 76 76 81 84 82
62 61 61 61 61 61 61 60 60 60 60 60 60 59 58 57 56 67 93 93 100 99 86 92 96 94 95 97 91 92 96 93 87 83 85 81 86 91 86 85 82 84 79 78 77 82 84
61 61 61 61 61 61 60 60 60 59 59 59 59 59 58 54 66 94 92 99 101 99 79 85 89 94 97 96 88 101 99 94 88 83 86 85 91 85 83 82 86 80 88 83 79 78 58
61 61 61 61 61 61 60 59 59 59 59 59 59 58 56 54 79 89 93 100 100 95 65 87 91 105 99 91 93 92 101 94 85 85 86 82 84 83 81 83 88 83 87 84 82 79 69
60 60 61 61 61 61 60 59 59 59 59 59 58 57 55 72 80 92 97 99 95 75 65 83 90 87 88 91 91 93 92 97 95 87 87 86 92 89 87 89 89 91 85 83 83 81 68
60 60 60 60 60 60 59 59 59 58 58 58 56 55 58 79 91 95 97 91 74 69 87 82 84 88 86 85 87 87 84 82 80 74 75 82 84 89 91 85 90 87 82 70 68 69 68
60 60 60 60 59 60 59 59 58 58 58 56 54 54 65 83 93 92 91 80 65 79 83 90 89 88 82 88 86 86 83 80 86 85 82 76 72 84 90 86 82 83 83 73 56 60 65
60 60 61 60 59 59 59 59 58 58 57 56 53 89 88 92 91 90 82 70 73 80 86 85 86 82 82 87 86 85 83 83 87 88 77 78 77 90 90 92 90 82 77 88 74 76 70
60 60 61 60 59 59 59 58 58 58 57 56 72 86 90 93 91 86 77 66 81 88 86 86 78 83 78 83 82 83 83 88 87 91 93 85 75 87 88 92 91 87 90 77 79 60 59
59 59 60 60 60 59 59 59 58 57 56 56 74 83 89 94 91 82 72 77 83 90 87 83 82 82 83 83 85 82 82 88 91 90 92 89 84 78 86 82 81 83 80 82 83 79 68
59 59 59 60 60 60 59 59 57 56 54 66 82 78 91 93 77 81 78 83 65 86 89 85 85 84 83 85 83 83 83 87 94 93 84 89 86 76 79 90 92 88 84 84 74 69 77
58 59 59 59 59 60 59 58 57 55 54 70 76 82 93 90 72 78 83 81 83 82 84 83 82 86 88 82 76 82 85 93 93 91 86 88 81 72 72 83 88 82 86 86 86 85 68
58 59 59 59 59 59 59 58 57 56 55 66 76 76 83 84 85 77 77 77 78 85 83 85 84 86 83 80 84 79 83 89 90 92 75 85 83 77 71 72 77 78 81 85 84 76 76
58 58 59 59 59 59 59 58 57 56 55 65 79 79 77 75 80 77 78 76 74 76 83 85 80 80 80 76 78 78 83 86 89 79 86 88 76 79 83 82 83 83 82 83 79 81 75
58 58 58 59 59 59 59 59 58 56 55 72 72 72 79 76 77 74 68 73 73 77 79 76 76 80 82 76 78 77 83 83 82 88 85 89 75 78 76 85 83 80 83 83 83 82 81
57 58 58 59 59 59 59 59 58 56 57 76 78 79 73 68 74 74 75 75 74 76 77 80 79 77 76 79 85 85 88 87 87 82 82 82 80 75 68 78 81 73 81 83 83 85 84
57 58 58 59 58 59 59 59 59 57 56 73 74 71 68 66 73 72 75 73 71 73 70 77 80 75 81 89 86 85 85 85 85 85 88 79 77 76 71 74 61 80 90 87 84 86 88
57 58 58 58 58 58 59 60 60 58 57 69 73 69 64 63 71 71 70 71 73 74 71 72 77 82 86 81 72 69 72 74 79 84 85 87 80 73 66 68 71 75 83 83 81 79 89
57 57 57 58 58 58 59 60 60 59 58 66 67 72 66 59 71 70 68 69 67 69 72 75 82 85 83 75 71 60 61 68 69 75 86 86 83 76 69 64 55 72 89 92 89 73 89
56 56 57 57 58 58 59 60 59 59 58 63 68 70 67 62 71 71 66 66 72 70 69 73 75 74 80 70 65 64 65 73 63 66 69 74 74 70 68 64 71 84 89 91 70 74 90
56 56 56 56 57 58 58 59 59 59 59 61 67 71 60 57 66 70 71 67 70 69 65 70 69 74 72 64 65 67 67 71 70 71 69 69 69 70 72 66 62 89 88 77 84 89 90
56 56 56 56 56 57 58 58 59 59 58 58 61 65 68 52 60 67 69 73 72 74 70 71 68 66 66 62 65 63 54 68 68 63 79 65 71 73 74 75 84 87 86 92 94 90 89

GFSGBSN_sfc_temp_162.txt.gz
Temp
64 64 64 64 63 63 63 63 63 63 62 62 62 61 61 62 62 62 62 62 62 62 62 62 63 64 70 79 87 92 81 84 94 95 94 94 92 93 88 91 87 74 84 84 84 82 82
64 63 63 63 63 63 63 63 64 63 63 62 62 61 61 61 61 62 62 61 61 61 62 62 63 63 75 79 101 98 98 96 98 97 97 98 95 98 92 90 83 82 85 85 81 80 78
63 63 63 63 63 62 62 62 63 63 62 62 62 61 61 61 61 61 61 60 60 61 62 63 64 73 82 88 105 103 102 99 101 101 96 101 101 95 96 80 90 89 77 67 79 79 75
63 63 63 63 63 62 62 62 62 62 62 62 62 61 61 61 61 60 59 59 60 61 62 63 64 78 81 104 106 103 103 101 104 104 102 104 103 96 93 89 85 81 66 60 78 78 75
63 63 64 63 63 62 62 62 62 62 62 62 62 61 61 60 60 59 58 58 62 64 64 65 72 80 85 91 96 102 103 97 100 101 101 103 98 91 93 81 75 64 61 59 68 77 76
63 63 64 63 63 62 61 62 62 62 62 61 61 61 60 60 59 58 57 59 64 64 69 81 86 82 92 92 99 101 104 101 96 95 93 92 90 85 87 83 61 54 59 57 61 66 76
63 63 63 62 62 62 61 61 61 61 60 60 60 60 59 59 58 57 64 81 79 79 87 87 91 89 95 101 102 97 101 97 96 91 81 89 81 78 84 87 79 73 63 65 62 80 73
62 62 62 62 61 62 62 61 60 60 60 60 59 59 59 59 58 57 66 86 95 96 84 94 94 97 100 101 89 95 101 90 87 80 86 84 77 87 91 90 76 76 68 69 79 85 74
62 62 61 61 61 61 61 61 60 60 60 60 59 59 58 58 57 65 88 93 104 102 84 91 97 95 96 98 91 91 96 92 86 82 83 79 85 91 88 87 82 76 77 76 78 83 82
61 60 60 60 61 61 61 60 60 59 60 60 59 59 58 54 67 90 92 102 103 103 76 84 90 94 98 97 89 101 100 93 89 82 85 84 91 88 85 82 85 77 88 83 80 77 68
60 60 60 60 60 60 60 60 59 59 59 59 59 58 56 56 75 85 97 103 104 96 60 90 91 105 99 90 93 93 102 94 84 85 86 81 84 83 81 83 87 81 87 83 83 78 78
60 60 60 60 60 60 59 59 59 59 59 59 58 57 55 73 73 87 99 100 96 73 63 84 91 89 88 90 92 94 93 96 95 87 88 85 94 89 87 89 89 90 86 83 82 79 67
60 60 60 60 60 59 59 59 59 58 58 58 56 56 56 76 84 99 98 92 72 65 89 83 83 88 86 85 87 88 84 82 79 73 75 82 84 89 91 83 88 86 80 67 65 67 66
60 60 60 60 59 59 59 59 58 58 58 57 55 54 65 80 94 96 91 78 62 78 81 93 90 88 81 86 86 86 83 79 85 83 79 74 71 84 89 84 82 82 80 70 58 58 57
60 60 60 60 60 59 59 58 58 58 57 56 54 85 86 92 92 93 81 67 70 78 88 87 88 82 81 86 87 85 82 82 86 87 75 75 77 90 90 91 88 82 75 86 75 67 52
59 59 59 59 60 60 59 59 58 58 57 56 67 81 90 98 97 88 75 64 78 87 91 88 78 84 78 83 82 83 83 88 86 91 92 83 74 87 89 91 91 86 89 74 76 61 52
59 59 59 59 59 59 60 59 58 57 56 56 72 80 92 98 94 81 68 74 81 89 90 83 80 80 83 82 85 83 83 89 92 91 92 87 82 78 86 82 80 82 79 81 81 76 64
59 58 58 59 59 59 59 59 58 56 54 66 79 77 94 96 76 79 74 79 71 85 91 88 86 83 82 84 83 83 82 87 95 93 84 88 83 74 79 89 91 88 82 82 72 68 74
58 58 59 59 59 59 59 58 57 56 55 65 71 81 97 92 71 76 83 83 84 84 84 84 83 85 87 82 76 83 85 94 94 91 86 89 79 69 73 80 87 82 85 85 85 83 71
58 58 58 59 59 59 59 58 57 56 55 64 72 75 86 87 84 78 76 78 80 88 84 85 83 87 83 80 84 79 83 90 94 92 78 85 83 75 68 67 71 73 81 84 83 74 72
58 58 58 59 59 59 59 58 57 56 55 64 74 77 82 73 79 80 80 78 76 76 86 86 79 80 79 74 78 78 83 86 91 81 87 86 75 79 81 79 73 71 77 80 79 80 74
58 58 58 59 59 59 59 58 58 57 55 70 72 71 75 72 76 75 70 73 74 77 79 78 78 81 82 75 77 76 82 82 82 87 85 88 74 78 75 81 79 71 74 73 83 82 81
58 58 58 59 59 59 59 59 59 57 58 73 77 77 72 65 72 73 75 76 77 80 81 82 80 78 77 82 84 85 86 86 86 82 81 80 76 73 68 78 69 53 67 80 84 84 83
58 58 58 59 59 59 59 59 60 58 56 68 72 72 66 63 70 72 76 78 75 76 72 78 79 75 82 89 87 86 84 83 84 84 87 75 71 74 69 72 60 76 81 84 85 86 88
57 58 58 58 58 58 59 59 60 59 57 66 72 67 66 61 69 70 73 73 75 75 73 74 77 81 85 81 72 67 69 71 75 80 81 84 78 71 64 63 72 77 78 82 80 80 89
57 57 57 57 58 58 59 60 60 59 58 65 67 70 66 61 69 69 67 71 68 69 71 75 83 87 83 75 69 58 57 64 65 72 82 83 80 74 69 62 56 74 84 82 81 70 89
56 56 57 57 57 58 58 59 59 60 58 62 66 69 63 57 68 70 66 65 72 69 66 72 71 72 82 69 63 61 61 71 62 64 67 71 71 69 68 66 69 81 84 79 57 65 89
56 56 56 57 57 57 58 58 59 59 59 61 65 67 60 58 64 68 70 65 67 68 64 69 66 70 69 64 64 64 64 68 68 71 69 66 65 69 71 65 62 83 83 71 74 83 90
56 56 56 56 57 57 58 58 58 58 59 59 63 69 69 55 62 68 69 71 70 69 66 69 65 65 63 61 62 64 58 65 64 58 77 59 65 69 73 74 81 85 79 81 86 87 89

GFSGBSN_sfc_temp_165.txt.gz
Temp
64 64 64 64 63 63 63 64 64 63 63 63 62 62 61 61 62 62 62 62 61 61 62 62 63 63 62 65 75 86 82 83 86 88 86 85 82 82 77 80 79 71 69 81 82 82 76
64 64 64 64 64 63 63 63 63 63 63 63 62 62 61 61 61 62 61 61 60 61 62 62 63 63 61 67 92 88 86 85 89 87 86 87 85 90 83 83 77 79 77 79 80 76 73
63 64 64 64 64 62 62 63 63 63 63 63 62 62 62 61 61 61 61 60 60 60 61 63 64 68 70 75 94 90 89 84 86 89 85 91 92 84 84 78 83 77 70 72 73 76 74
64 64 64 64 64 63 62 62 63 63 63 63 62 62 61 61 61 61 60 59 60 62 62 63 64 67 66 95 93 93 91 89 92 91 91 92 92 85 79 82 76 67 65 56 64 73 74
63 63 63 62 63 63 62 63 62 61 60 60 60 60 60 60 60 59 58 58 61 65 64 64 60 63 72 90 91 93 93 89 89 90 90 100 86 78 81 72 63 63 54 59 62 64 71
63 62 62 62 62 61 62 61 61 60 60 60 60 59 59 59 59 58 58 58 65 62 65 72 78 68 79 83 90 94 93 94 88 85 85 83 76 69 70 64 53 56 58 64 59 65 69
62 62 62 62 61 61 61 61 61 60 60 60 60 59 59 59 58 57 58 67 65 65 73 73 76 81 89 92 96 89 93 89 87 79 68 76 65 61 69 75 73 67 63 62 64 69 66
62 61 61 61 61 61 61 61 60 60 60 60 60 59 59 58 58 57 54 69 80 85 72 81 84 87 93 92 84 89 92 79 78 69 74 68 63 75 81 80 75 69 63 63 67 71 64
61 60 60 60 60 60 60 60 60 59 59 60 60 59 58 58 57 58 70 79 92 90 71 81 88 86 87 89 84 83 86 83 76 71 72 66 73 83 81 77 70 66 65 70 69 69 66
60 60 60 60 60 60 60 59 59 59 59 59 59 59 58 55 63 74 77 88 91 91 61 73 78 87 90 89 81 94 91 84 79 72 74 71 81 81 78 76 72 59 80 79 77 66 55
60 60 60 60 60 60 59 59 59 59 58 58 59 58 56 55 61 70 84 92 91 82 48 84 83 97 90 81 82 87 94 84 75 76 71 70 75 75 73 75 77 71 82 78 78 67 60
60 60 60 60 60 60 59 59 58 58 58 58 58 57 56 66 60 71 82 87 82 59 53 79 86 82 80 82 84 87 86 86 86 78 77 75 85 77 77 82 81 83 76 74 71 63 50
60 60 60 60 60 59 59 59 58 58 58 57 56 56 55 66 69 85 84 79 57 53 80 77 76 82 79 77 80 80 78 71 66 57 61 73 76 80 82 71 76 73 59 50 48 49 52
60 59 59 59 59 59 59 59 58 58 58 57 55 54 58 66 73 76 74 64 51 70 71 82 81 81 75 79 79 80 74 68 74 71 65 60 60 75 82 73 67 67 62 51 45 46 53
59 59 59 59 58 58 58 58 58 58 57 56 55 71 73 78 74 80 68 55 59 69 79 79 80 74 73 79 78 77 73 72 76 76 61 58 65 83 83 81 76 67 59 69 60 51 51
59 59 59 58 58 58 58 58 58 57 57 56 57 67 76 89 85 78 62 55 67 79 80 79 69 74 69 74 74 73 72 80 79 83 80 69 59 74 82 82 80 69 73 56 55 44 45
59 59 58 58 58 58 58 58 58 57 56 56 61 68 85 92 86 68 58 63 73 81 83 77 75 73 73 72 76 75 76 82 85 84 81 75 65 67 75 69 67 67 62 62 61 60 49
58 58 58 58 58 58 58 58 57 56 54 61 67 64 87 90 65 67 64 70 67 78 83 80 81 77 73 75 71 73 74 80 90 87 74 75 66 57 68 79 81 75 67 66 54 54 57
58 58 58 58 58 58 58 58 56 55 55 55 58 67 87 86 60 65 72 76 79 78 78 78 77 79 79 73 65 73 77 87 87 83 71 71 62 53 59 65 74 68 71 67 65 60 58
58 58 58 58 59 58 58 57 56 56 55 56 60 63 74 76 76 70 68 69 72 83 81 80 77 77 73 70 72 69 74 84 87 86 77 76 65 60 54 59 65 65 68 67 64 54 58
58 58 58 58 59 58 58 58 57 56 56 56 65 66 70 62 65 67 69 69 70 69 78 78 73 75 71 63 66 67 74 77 83 79 78 74 59 60 67 70 70 69 73 72 62 66 56
58 58 58 58 59 58 58 58 57 56 56 61 62 61 65 61 67 66 64 66 69 73 73 71 70 76 74 65 67 65 71 67 66 74 74 73 60 60 62 72 74 69 71 72 70 71 66
58 58 58 58 59 59 58 58 58 56 57 62 65 67 63 58 62 63 64 68 71 74 74 78 74 71 69 71 73 75 74 73 70 65 67 65 60 57 54 66 67 57 67 69 70 68 63
57 58 58 58 58 58 58 58 59 58 56 60 62 63 57 54 60 62 66 69 69 68 67 73 73 67 73 79 77 76 74 73 73 71 71 64 61 58 52 56 49 64 72 76 72 75 75
58 58 57 58 58 58 58 59 59 58 57 58 63 61 57 51 59 61 64 64 66 68 68 71 74 75 77 73 62 57 60 61 65 71 69 68 62 55 50 50 59 66 71 70 63 65 77
57 57 57 57 58 58 58 59 59 59 57 59 62 63 58 52 56 60 59 63 59 60 64 69 73 76 75 64 59 49 48 56 56 62 65 70 65 57 52 49 47 62 72 78 73 57 77
56 56 57 57 57 58 58 59 59 59 58 57 60 64 57 50 58 60 55 55 62 60 57 64 63 65 72 59 55 52 52 61 53 54 55 57 59 56 57 53 60 72 74 76 59 59 71
56 56 56 57 57 57 58 58 58 59 58 58 59 64 56 53 56 60 62 56 57 58 53 59 59 62 60 53 54 53 53 57 56 59 56 54 55 55 55 53 50 73 73 65 66 68 73
56 56 56 56 57 57 58 58 58 58 58 58 56 65 62 52 55 63 64 66 64 63 59 59 57 58 58 55 52 53 50 53 52 48 61 50 49 47 52 54 63 68 71 69 76 71 74

GFSGBSN_sfc_temp_168.txt.gz
Temp
64 64 64 63 63 62 63 63 63 63 63 63 63 63 63 62 62 62 62 62 61 61 61 62 63 63 60 61 72 86 82 82 82 83 82 80 75 73 70 75 78 70 69 79 78 76 72
64 64 64 64 63 63 62 63 63 63 63 63 63 62 62 61 61 62 62 61 60 60 61 62 63 63 59 62 86 84 83 81 83 82 80 81 79 80 75 74 70 75 72 76 76 74 73
64 64 65 63 63 63 63 63 63 62 62 61 61 61 61 60 61 61 61 60 60 60 61 62 63 66 62 71 88 83 83 79 80 82 79 83 83 76 77 69 77 75 68 69 69 70 72
63 63 62 62 62 61 62 62 61 61 61 61 60 60 60 60 60 60 60 59 60 62 62 63 64 61 63 85 84 84 79 78 83 82 83 85 83 77 75 76 74 65 64 58 66 71 73
63 62 62 62 61 61 61 61 61 61 60 60 60 60 60 60 60 59 58 59 61 65 63 64 56 58 65 86 82 86 85 83 80 81 82 94 80 72 74 65 59 62 55 58 60 68 70
62 61 61 61 61 60 60 60 60 60 60 61 60 60 60 60 59 58 57 59 64 62 64 69 73 63 73 80 84 88 86 88 81 78 80 76 70 64 62 59 50 53 55 62 58 65 66
61 61 61 61 60 60 60 60 60 60 60 60 60 60 59 59 58 57 54 58 63 62 61 69 69 72 82 84 90 83 87 84 80 74 64 70 61 57 63 65 68 66 61 61 64 69 66
61 61 61 60 60 60 60 60 59 59 59 59 59 59 59 58 58 57 53 60 71 73 64 73 78 78 85 82 79 83 86 75 72 65 66 62 57 68 73 72 70 65 62 62 66 69 67
60 60 60 60 60 60 60 59 59 59 59 59 59 58 58 57 56 54 60 68 78 74 62 72 76 76 78 81 79 79 83 76 69 65 66 60 67 76 74 71 68 62 61 63 65 67 66
60 60 60 60 60 60 59 59 59 58 58 58 58 58 57 55 61 61 67 74 77 75 54 64 70 79 81 83 76 87 86 79 72 67 66 63 74 74 72 69 67 54 72 73 68 61 52
60 60 59 59 59 59 59 59 59 58 58 58 58 58 56 54 52 60 75 76 77 72 45 76 72 88 82 77 76 78 86 77 71 71 67 66 70 68 68 71 71 67 78 72 71 62 56
60 60 59 59 59 59 58 58 58 58 58 58 58 57 56 56 51 61 68 72 71 56 48 71 80 75 73 74 78 79 80 78 80 71 68 69 77 74 72 77 76 78 70 66 63 58 49
60 59 59 59 59 58 58 58 58 58 57 57 56 56 54 61 61 67 67 67 54 47 70 70 68 74 70 70 73 74 72 69 64 54 55 66 70 73 78 66 70 67 56 46 47 47 48
59 59 59 58 58 58 58 58 58 57 57 56 55 53 53 58 56 63 65 60 45 63 62 72 72 71 67 71 71 73 67 64 67 62 56 54 55 68 75 71 66 61 57 47 42 42 50
59 59 58 58 58 58 58 58 57 57 57 56 54 55 57 62 62 63 61 47 52 60 70 68 69 62 64 72 69 68 66 68 70 67 59 52 58 73 77 75 74 61 56 61 48 46 46
59 58 58 58 58 58 58 58 57 57 56 55 49 53 60 71 68 64 56 48 56 68 72 70 58 64 59 66 65 62 64 72 73 74 69 62 56 67 76 76 71 68 68 54 48 42 40
59 58 58 58 58 58 58 58 57 56 55 55 53 58 71 74 70 60 50 52 64 72 74 66 64 62 64 64 66 63 68 74 79 78 74 67 60 65 68 64 64 63 58 55 55 51 45
59 58 58 58 58 58 58 58 56 55 54 53 49 54 72 76 58 53 50 59 64 70 73 71 70 68 64 69 62 63 67 71 82 81 69 69 58 56 63 70 77 71 65 57 51 51 52
58 58 58 58 58 58 58 57 56 55 54 51 45 50 71 71 51 50 57 65 69 70 69 68 69 70 68 64 60 68 70 79 82 78 72 70 56 50 56 62 67 63 63 60 55 51 51
58 58 58 58 58 58 58 57 56 55 55 49 47 49 59 61 58 53 54 58 62 74 71 70 68 68 64 62 65 65 68 77 79 79 75 73 57 55 52 57 61 60 66 63 56 49 50
58 58 58 58 58 58 58 57 56 56 56 51 50 50 52 46 52 54 52 59 62 62 70 68 66 67 63 55 58 61 67 69 74 71 71 65 59 57 59 65 65 65 66 66 57 56 53
58 58 58 58 59 58 58 58 57 56 55 55 49 47 50 49 51 53 52 54 60 63 62 63 61 67 62 55 55 55 58 57 60 67 64 62 59 56 58 66 67 65 67 68 67 63 61
58 58 58 58 58 58 58 58 57 56 54 48 51 54 49 47 48 48 50 56 60 62 65 68 67 62 60 63 65 64 62 62 61 56 59 57 56 53 48 58 60 53 64 67 67 64 63
57 57 57 58 58 58 58 58 58 57 54 49 50 49 45 44 49 51 55 59 58 59 57 65 66 59 65 70 67 62 60 61 64 64 60 57 53 49 49 51 44 59 68 72 69 71 67
57 57 57 57 58 58 58 58 58 57 56 49 50 50 49 44 49 52 52 54 56 57 57 62 63 64 65 61 55 51 51 55 59 64 63 60 54 50 48 45 54 61 65 67 65 65 72
57 56 57 57 57 58 58 58 58 58 56 50 49 55 53 44 43 54 50 53 47 47 51 58 62 64 63 54 52 44 44 49 51 58 57 58 57 55 47 45 43 57 69 71 70 56 72
56 56 56 57 57 58 58 58 58 58 57 52 50 56 52 44 47 49 45 46 52 48 46 51 54 57 59 49 46 44 46 55 48 48 48 50 52 51 47 45 53 60 71 70 55 57 72
56 56 56 56 57 57 58 58 58 58 58 53 50 54 52 46 49 54 55 47 49 47 43 48 50 51 49 48 49 48 44 48 47 50 49 49 47 46 47 46 46 62 67 58 60 65 72
55 56 56 56 56 57 57 58 58 58 57 56 47 54 54 46 48 57 58 60 58 57 50 48 47 47 49 46 47 47 45 46 45 43 52 47 48 45 48 48 56 59 58 60 63 60 65

GFSGBSN_sfc_temp_171.txt.gz
Temp
64 65 64 64 63 63 62 62 63 63 62 62 61 61 61 61 61 61 62 62 61 60 60 61 62 63 58 59 71 81 81 81 79 81 80 78 73 71 67 73 76 68 71 76 75 73 69
64 64 63 62 62 62 62 62 62 62 61 61 61 60 60 60 60 61 61 60 60 60 61 62 62 63 59 60 83 82 79 79 80 79 77 78 77 76 73 71 67 72 73 73 72 72 71
63 62 62 62 61 61 61 61 61 61 61 61 60 60 60 60 61 61 61 60 60 60 61 62 63 65 61 70 84 80 80 76 75 79 76 80 81 73 72 67 75 73 68 68 70 70 69
62 62 62 61 61 61 60 60 61 60 60 61 61 60 60 60 60 60 59 59 59 61 62 63 64 59 62 80 79 80 76 74 78 76 78 80 79 73 71 73 71 66 63 56 66 66 67
61 61 61 61 61 60 60 60 60 60 60 60 60 60 60 60 60 59 58 58 61 64 63 64 56 56 65 81 78 81 80 78 76 74 77 90 77 69 71 62 57 59 54 57 61 67 67
61 61 61 61 60 60 60 60 60 60 60 59 59 59 59 59 59 58 57 58 64 62 64 67 70 60 71 77 80 81 80 82 78 76 76 74 66 61 58 56 50 53 53 59 57 63 65
61 61 61 61 60 60 60 60 59 59 59 59 59 59 59 58 58 56 55 55 60 59 59 67 68 71 77 81 85 79 83 79 76 72 63 65 60 56 62 63 63 60 57 59 63 67 64
61 60 60 60 60 60 60 59 59 59 59 59 59 58 58 58 57 56 53 60 64 68 60 71 72 74 79 79 76 78 84 73 70 63 63 60 56 65 68 68 65 62 60 59 63 67 65
60 60 60 59 59 59 59 59 59 58 58 58 58 58 57 57 56 54 59 65 71 65 57 67 70 71 73 78 74 75 80 73 67 62 62 56 65 72 69 67 63 58 59 60 60 64 66
60 59 59 59 59 59 59 58 58 58 58 58 58 58 57 55 58 57 63 67 68 68 53 62 65 73 76 77 71 83 81 77 67 65 63 60 68 70 66 65 64 53 68 69 65 58 51
59 59 59 59 59 58 58 58 58 58 58 58 58 57 56 55 50 59 70 64 68 69 46 72 68 81 76 74 73 76 82 75 67 67 64 63 65 66 64 67 67 64 71 68 65 59 53
59 59 59 59 58 58 58 58 58 58 57 57 57 56 56 53 49 58 63 63 68 55 47 67 74 71 70 69 72 74 75 77 75 68 63 66 71 70 68 71 70 72 66 61 58 53 46
59 59 59 58 58 58 58 58 58 57 57 57 56 55 54 59 60 61 62 66 54 46 66 66 63 67 64 65 68 70 69 66 62 53 51 61 67 68 73 64 65 62 53 45 43 44 45
59 58 58 58 58 58 58 58 57 57 57 56 54 52 52 56 54 61 64 61 43 60 59 67 68 66 66 68 67 69 65 61 65 59 53 53 54 66 71 68 64 58 56 46 41 41 47
59 58 58 58 58 58 58 57 57 57 56 55 53 52 51 57 58 59 62 48 51 56 66 65 65 59 59 66 64 64 63 64 65 64 58 51 56 69 73 73 72 58 52 56 46 42 44
59 58 58 58 58 58 58 57 57 57 56 55 47 50 58 62 62 62 56 47 53 64 67 64 55 59 54 60 60 61 63 69 69 69 63 61 55 64 72 71 68 65 64 53 46 40 38
58 58 58 58 58 58 58 58 57 56 55 54 51 59 66 64 65 59 49 49 59 68 69 63 58 58 60 59 61 60 65 72 74 72 68 58 56 63 65 61 62 60 54 51 51 46 44
58 58 58 58 58 58 58 57 56 55 54 52 46 55 67 67 57 47 48 54 61 66 69 67 64 63 61 64 58 58 63 70 76 73 64 64 56 53 60 66 67 65 60 55 49 47 45
58 58 58 58 58 58 58 57 56 55 55 51 44 46 63 67 49 47 53 60 64 64 64 63 64 65 65 62 56 62 66 76 75 71 63 64 54 49 55 58 61 60 60 57 51 47 45
58 58 58 58 58 58 58 57 56 55 55 50 48 50 54 55 51 48 48 53 57 69 65 65 65 64 60 57 58 58 62 72 74 73 69 68 52 56 57 58 59 58 62 58 55 47 47
58 58 58 58 58 58 58 57 56 55 55 51 49 46 47 45 49 48 47 54 57 55 63 63 61 62 58 49 52 53 58 61 69 69 67 62 56 56 59 63 64 62 62 61 56 55 54
57 58 58 58 58 58 58 57 57 55 54 51 46 44 47 44 47 49 47 48 54 56 57 57 56 62 60 53 53 52 54 52 55 64 62 59 56 53 57 62 64 62 64 63 62 60 57
57 57 57 58 58 58 58 58 57 55 53 46 48 49 47 45 44 44 45 50 55 56 59 63 61 58 57 60 62 63 61 59 59 53 56 56 53 51 48 57 58 52 61 62 61 61 61
57 57 57 58 58 58 58 58 57 56 54 47 47 47 44 41 45 47 49 53 54 53 52 59 60 55 62 66 63 58 56 57 58 59 58 55 51 49 49 49 43 58 62 67 66 65 65
57 57 57 57 58 58 58 58 58 57 56 48 48 47 44 40 45 47 49 50 51 51 52 57 59 60 62 55 51 48 49 51 56 61 57 57 52 48 49 46 52 58 63 65 63 62 67
56 56 56 57 57 58 58 58 58 57 56 49 47 49 46 42 41 51 47 49 43 43 47 52 59 59 56 50 48 42 42 47 50 54 53 51 51 51 44 44 44 55 64 67 65 55 68
56 56 56 56 57 57 58 58 58 58 56 51 48 54 46 46 45 45 43 43 48 45 42 46 49 51 54 46 44 42 43 52 46 46 52 48 46 46 44 44 51 58 62 64 54 53 60
56 56 56 56 56 57 57 58 58 58 57 52 47 51 47 44 45 50 53 46 46 44 40 44 46 47 46 43 43 42 42 46 44 48 46 47 46 43 42 41 44 60 61 57 55 54 60
55 55 55 55 56 56 57 57 58 57 57 55 48 50 51 45 45 51 55 57 55 54 47 44 43 43 46 43 45 43 43 47 47 43 48 45 47 45 46 46 55 56 55 58 57 56 58

GFSGBSN_sfc_temp_174.txt.gz
Temp
63 63 63 62 62 61 61 62 62 61 61 62 61 60 60 61 61 61 61 61 61 60 60 61 62 62 56 58 70 80 81 81 78 79 78 76 72 69 64 68 70 67 70 74 73 72 69
62 62 62 62 62 61 61 61 61 61 61 61 61 60 60 61 61 61 61 61 60 60 61 61 62 63 57 60 80 79 76 77 77 77 75 77 75 75 69 68 66 71 71 69 71 69 69
62 62 62 61 61 61 61 61 61 61 61 61 61 61 61 61 61 61 61 60 60 60 61 62 63 63 60 70 80 78 77 73 75 78 73 77 77 73 70 65 72 70 64 65 68 69 68
61 61 61 61 61 60 60 60 60 60 60 60 60 60 60 60 60 60 59 58 59 61 61 63 64 58 62 77 76 78 74 73 75 72 75 76 76 72 68 71 69 65 62 55 64 67 67
61 61 61 61 61 60 60 60 60 60 60 60 60 60 60 60 59 59 58 58 61 63 63 64 55 56 64 78 75 78 77 75 73 72 74 88 73 66 68 61 56 58 51 55 60 67 67
61 61 61 61 60 60 60 60 60 59 59 59 59 59 59 59 58 57 57 58 64 62 63 66 68 59 70 74 76 78 76 79 75 74 72 70 63 59 56 55 48 51 52 57 56 62 64
61 61 61 60 60 60 60 59 59 59 59 59 59 58 58 58 57 56 54 54 57 57 58 65 65 68 75 77 81 74 78 77 73 70 61 61 59 55 60 60 61 58 55 57 61 65 61
60 60 60 60 60 59 59 59 59 59 59 59 58 58 58 57 56 55 52 58 62 65 58 68 69 70 75 75 73 74 80 71 66 60 61 59 54 64 66 64 62 59 57 57 62 66 62
60 60 59 59 59 59 59 58 58 58 58 58 58 58 57 56 56 53 56 63 67 64 54 65 67 67 70 76 71 72 77 70 64 59 58 55 63 68 67 63 60 56 56 58 60 63 65
60 59 59 59 59 59 58 58 58 58 58 58 58 58 57 55 55 54 61 63 64 64 52 61 61 70 72 73 69 80 78 74 64 63 60 59 65 67 62 62 62 52 65 66 62 56 49
59 59 59 59 58 58 58 58 58 58 58 58 58 58 56 55 48 57 64 60 60 65 45 68 65 77 71 71 71 72 77 72 65 64 62 61 62 61 60 64 65 62 67 64 62 55 50
59 59 59 59 58 58 58 58 58 57 57 57 57 56 55 52 48 56 60 60 66 54 47 64 69 67 66 65 68 71 72 74 71 65 60 63 67 67 67 69 68 68 61 58 54 50 44
59 58 58 58 58 58 58 57 57 57 57 56 55 54 53 58 59 57 59 65 53 45 64 62 60 63 61 63 65 66 67 64 60 52 51 60 63 66 69 61 61 60 51 41 41 41 42
59 58 58 58 58 58 58 58 57 57 56 55 54 52 52 55 52 57 63 60 42 57 55 64 64 61 61 65 64 66 62 58 61 57 51 51 52 63 68 66 61 55 54 45 39 38 44
59 58 58 58 58 58 58 57 57 57 56 55 52 51 49 55 55 56 61 47 50 54 61 62 62 56 56 63 62 61 60 59 63 63 58 49 54 65 69 67 68 55 51 54 44 40 42
59 58 58 58 58 58 58 57 57 56 56 54 47 50 59 59 58 61 56 46 51 59 64 62 52 57 52 56 57 58 58 64 65 67 69 60 55 62 68 68 64 62 61 51 44 39 37
59 58 58 58 58 58 58 57 56 56 55 54 51 58 63 60 60 59 49 48 56 64 66 59 55 55 55 56 57 56 60 67 69 65 66 60 58 62 62 60 59 57 52 48 48 44 41
58 58 58 58 58 58 58 57 56 55 54 51 47 55 64 63 56 44 47 51 58 62 65 62 60 60 58 59 56 58 61 65 72 68 61 62 56 58 60 61 65 60 57 52 48 45 42
58 58 58 58 58 58 58 57 56 54 54 50 45 47 61 63 48 45 51 56 60 62 60 61 59 60 60 57 54 60 62 71 71 67 62 62 54 49 55 56 58 59 57 54 49 46 43
58 58 58 58 58 58 58 57 56 55 54 49 49 50 53 52 48 46 46 51 55 64 60 60 60 60 57 54 54 54 58 67 68 67 69 67 52 54 54 58 60 55 59 54 54 47 46
58 58 58 58 58 58 58 57 56 55 54 50 47 43 45 43 47 45 45 51 53 52 59 59 57 57 53 48 52 51 56 60 65 66 61 61 54 54 60 62 64 61 60 57 55 54 54
57 58 58 58 58 58 58 58 56 55 53 48 44 43 45 43 44 45 44 43 50 52 52 53 52 57 56 49 50 49 54 51 55 61 57 59 54 53 58 62 62 60 63 60 59 58 57
57 57 57 58 58 58 58 58 57 55 52 46 46 47 45 43 42 41 42 46 51 53 56 59 57 54 53 55 57 58 57 59 56 54 55 52 51 48 48 55 57 52 60 60 60 59 60
57 57 57 57 58 58 58 58 57 56 54 49 45 45 42 40 42 45 48 49 50 51 49 54 56 51 57 61 59 53 50 53 54 56 54 53 49 46 46 48 43 59 62 66 65 64 63
57 57 57 57 58 58 58 58 58 57 55 49 46 45 42 38 43 45 47 48 49 48 48 52 56 56 57 51 48 46 46 47 54 57 54 55 49 47 45 42 51 58 62 61 62 61 65
56 56 56 57 57 58 58 58 58 57 55 47 46 47 44 43 40 49 45 46 41 40 43 49 55 54 51 47 45 40 41 45 47 51 48 50 50 52 42 41 42 55 64 63 63 54 60
56 56 56 56 56 57 58 58 58 58 56 50 46 47 45 45 43 43 42 42 46 42 40 42 45 47 49 42 41 40 41 49 44 45 47 46 45 47 44 43 49 57 60 61 54 53 58
56 56 56 56 56 56 57 58 58 58 57 50 47 47 45 41 43 47 49 45 44 43 40 42 43 44 42 40 40 40 40 43 42 46 45 46 42 42 43 42 43 58 59 56 53 56 58
55 55 55 55 56 56 56 57 57 57 57 53 43 48 48 42 44 48 53 54 52 51 44 42 41 41 44 41 43 41 40 42 41 40 46 43 47 44 47 48 54 56 55 58 57 56 58